| time (UTC) | temp C | wind direction | speed KPH | gust KPH | rain 1hr cm | rain 24hr cm | rain mn cm | humidity % | barometer mb |
| 20260906020011 | 30 | 26 | 0.0 | 14.5 | 0.00 | 0.00 | 0.00 | 70 | 991.1 |
| 20260906014511 | 30 | 90 | 0.0 | 3.2 | 0.00 | 0.00 | 0.00 | 69 | 990.9 |
| 20260906013011 | 30 | 54 | 0.0 | 3.2 | 0.00 | 0.00 | 0.00 | 67 | 990.7 |
| 20260906011508 | 30 | 28 | 0.0 | 3.2 | 0.00 | 0.00 | 0.00 | 66 | 990.3 |
| 20260906010009 | 30 | 45 | 0.0 | 4.8 | 0.00 | 0.00 | 0.00 | 64 | 990.3 |
| 20260906004508 | 31 | 21 | 0.0 | 20.9 | 0.00 | 0.00 | 0.00 | 64 | 990.4 |
| 20260906003007 | 31 | 29 | 0.0 | 16.1 | 0.00 | 0.00 | 0.00 | 62 | 990.5 |
| 20260906001506 | 32 | 22 | 1.6 | 25.7 | 0.00 | 0.00 | 0.00 | 58 | 990.2 |
| 20260906000006 | 34 | 359 | 3.2 | 19.3 | 0.00 | 0.00 | 0.00 | 53 | 990.0 |
| 20260905234504 | 34 | 45 | 0.0 | 22.5 | 0.00 | 0.00 | 0.00 | 53 | 989.8 |
| 20260905233005 | 36 | 62 | 8.0 | 20.9 | 0.00 | 0.00 | 0.00 | 49 | 989.6 |
| 20260905231504 | 36 | 4 | 0.0 | 1.6 | 0.00 | 0.00 | 0.00 | 46 | 989.5 |
| 20260905230003 | 36 | 23 | 0.0 | 3.2 | 0.00 | 0.00 | 0.00 | 47 | 989.6 |
| 20260905224504 | 36 | 21 | 0.0 | 14.5 | 0.00 | 0.00 | 0.00 | 46 | 989.4 |
| 20260905223002 | 36 | 45 | 0.0 | 1.6 | 0.00 | 0.00 | 0.00 | 44 | 989.4 |
| 20260905221501 | 37 | 359 | 0.0 | 1.6 | 0.00 | 0.00 | 0.00 | 44 | 989.3 |
| 20260905214606 | 35 | 225 | 0.0 | 1.6 | 0.00 | 0.00 | 0.00 | 46 | 989.6 |
| 20260905213102 | 35 | 359 | 0.0 | 1.6 | 0.00 | 0.00 | 0.00 | 48 | 989.7 |
| 20260905211556 | 36 | 359 | 0.0 | 3.2 | 0.00 | 0.00 | 0.00 | 46 | 989.8 |
| 20260905210053 | 37 | 359 | 0.0 | 1.6 | 0.00 | 0.00 | 0.00 | 44 | 990.0 |
| 20260905204552 | 36 | 359 | 0.0 | 1.6 | 0.00 | 0.00 | 0.00 | 44 | 990.1 |
| 20260905203050 | 36 | 294 | 0.0 | 3.2 | 0.00 | 0.00 | 0.00 | 43 | 990.4 |
| 20260905201549 | 37 | 152 | 0.0 | 4.8 | 0.00 | 0.00 | 0.00 | 42 | 990.5 |
| 20260905200054 | 37 | 274 | 0.0 | 3.2 | 0.00 | 0.00 | 0.00 | 42 | 990.7 |
| 20260905194546 | 37 | 104 | 0.0 | 3.2 | 0.00 | 0.00 | 0.00 | 42 | 990.8 |
| 20260905193042 | 37 | 166 | 0.0 | 1.6 | 0.00 | 0.00 | 0.00 | 43 | 991.2 |
| 20260905191540 | 36 | 359 | 0.0 | 1.6 | 0.00 | 0.00 | 0.00 | 45 | 991.5 |
| 20260905190038 | 36 | 45 | 0.0 | 3.2 | 0.00 | 0.00 | 0.00 | 45 | 991.8 |
| 20260905184539 | 35 | 359 | 0.0 | 1.6 | 0.00 | 0.00 | 0.00 | 48 | 992.0 |
| 20260905183038 | 37 | 31 | 0.0 | 3.2 | 0.00 | 0.00 | 0.00 | 46 | 992.2 |
| 20260905181536 | 36 | 359 | 0.0 | 3.2 | 0.00 | 0.00 | 0.00 | 45 | 992.5 |
| 20260905180035 | 36 | 359 | 0.0 | 12.9 | 0.00 | 0.00 | 0.00 | 47 | 992.8 |
| 20260905174535 | 36 | 359 | 0.0 | 1.6 | 0.00 | 0.00 | 0.00 | 47 | 992.9 |
| 20260905173025 | 35 | 276 | 0.0 | 1.6 | 0.00 | 0.00 | 0.00 | 49 | 993.2 |
| 20260905171523 | 35 | 82 | 1.6 | 12.9 | 0.00 | 0.00 | 0.00 | 49 | 993.4 |
| 20260905170021 | 35 | 264 | 0.0 | 1.6 | 0.00 | 0.00 | 0.00 | 49 | 993.4 |
| 20260905164518 | 35 | 359 | 0.0 | 3.2 | 0.00 | 0.00 | 0.00 | 50 | 993.5 |
| 20260905163017 | 33 | 222 | 0.0 | 1.6 | 0.00 | 0.00 | 0.00 | 53 | 993.6 |
| 20260905161516 | 34 | 56 | 1.6 | 9.7 | 0.00 | 0.00 | 0.00 | 51 | 993.6 |
| 20260905160026 | 33 | 272 | 0.0 | 1.6 | 0.00 | 0.00 | 0.00 | 56 | 993.6 |
| 20260905154508 | 33 | 359 | 0.0 | 1.6 | 0.00 | 0.00 | 0.00 | 59 | 993.6 |
| 20260905153005 | 32 | 359 | 0.0 | 1.6 | 0.00 | 0.00 | 0.00 | 62 | 993.5 |
| 20260905151601 | 31 | 359 | 0.0 | 1.6 | 0.00 | 0.00 | 0.00 | 65 | 993.6 |
| 20260905150057 | 30 | 143 | 0.0 | 1.6 | 0.00 | 0.00 | 0.00 | 67 | 993.4 |
| 20260905144554 | 30 | 141 | 1.6 | 12.9 | 0.00 | 0.00 | 0.00 | 69 | 993.3 |
| 20260905143051 | 30 | 145 | 0.0 | 1.6 | 0.00 | 0.00 | 0.00 | 70 | 993.4 |
| 20260905141608 | 28 | 177 | 0.0 | 1.6 | 0.00 | 0.00 | 0.00 | 73 | 993.5 |
| 20260905140059 | 28 | 138 | 0.0 | 1.6 | 0.00 | 0.00 | 0.00 | 74 | 993.4 |
| 20260905134603 | 27 | 359 | 0.0 | 1.6 | 0.00 | 0.00 | 0.00 | 75 | 993.4 |
| 20260905133054 | 27 | 138 | 0.0 | 1.6 | 0.00 | 0.00 | 0.00 | 77 | 993.2 |
| 20260905131554 | 26 | 73 | 0.0 | 3.2 | 0.00 | 0.00 | 0.00 | 78 | 993.0 |
| 20260905130042 | 26 | 87 | 0.0 | 1.6 | 0.00 | 0.00 | 0.00 | 79 | 992.8 |
| 20260905124542 | 25 | 77 | 0.0 | 1.6 | 0.00 | 0.00 | 0.00 | 80 | 992.7 |
| 20260905123040 | 25 | 155 | 0.0 | 1.6 | 0.00 | 0.00 | 0.00 | 81 | 992.7 |
| 20260905121540 | 25 | 123 | 0.0 | 1.6 | 0.00 | 0.00 | 0.00 | 81 | 992.6 |
| 20260905120039 | 25 | 42 | 0.0 | 0.0 | 0.00 | 0.00 | 0.00 | 81 | 992.7 |
| 20260905114605 | 25 | 265 | 0.0 | 1.6 | 0.00 | 0.00 | 0.00 | 80 | 992.5 |
| 20260905113037 | 25 | 65 | 0.0 | 1.6 | 0.00 | 0.00 | 0.00 | 80 | 992.6 |
| 20260905111542 | 25 | 45 | 0.0 | 0.0 | 0.00 | 0.00 | 0.00 | 79 | 992.6 |
| 20260905110034 | 26 | 118 | 0.0 | 1.6 | 0.00 | 0.00 | 0.00 | 79 | 992.4 |
| 20260905104534 | 26 | 359 | 0.0 | 1.6 | 0.00 | 0.00 | 0.00 | 78 | 992.2 |
| 20260905103036 | 26 | 142 | 0.0 | 1.6 | 0.00 | 0.00 | 0.00 | 77 | 992.3 |
| 20260905101534 | 26 | 102 | 0.0 | 1.6 | 0.00 | 0.00 | 0.00 | 78 | 992.2 |
| 20260905100036 | 26 | 129 | 0.0 | 1.6 | 0.00 | 0.00 | 0.00 | 79 | 992.3 |
| 20260905094531 | 26 | 359 | 0.0 | 1.6 | 0.00 | 0.00 | 0.00 | 78 | 992.1 |
| 20260905093032 | 26 | 359 | 0.0 | 1.6 | 0.00 | 0.00 | 0.00 | 77 | 992.1 |
| 20260905091528 | 26 | 359 | 0.0 | 1.6 | 0.00 | 0.00 | 0.00 | 76 | 992.2 |
| 20260905090025 | 26 | 189 | 0.0 | 1.6 | 0.00 | 0.00 | 0.00 | 75 | 992.2 |
| 20260905084522 | 27 | 130 | 0.0 | 1.6 | 0.00 | 0.00 | 0.00 | 75 | 991.9 |
| 20260905083021 | 27 | 89 | 0.0 | 1.6 | 0.00 | 0.00 | 0.00 | 74 | 991.6 |
| 20260905081520 | 27 | 93 | 0.0 | 1.6 | 0.00 | 0.00 | 0.00 | 74 | 991.6 |
| 20260905080022 | 27 | 126 | 0.0 | 1.6 | 0.00 | 0.00 | 0.00 | 74 | 991.7 |
| 20260905074518 | 27 | 88 | 0.0 | 1.6 | 0.00 | 0.00 | 0.00 | 73 | 991.8 |
| 20260905073021 | 27 | 125 | 0.0 | 1.6 | 0.00 | 0.00 | 0.00 | 73 | 992.0 |
| 20260905071514 | 28 | 112 | 0.0 | 1.6 | 0.00 | 0.00 | 0.00 | 73 | 992.3 |
| 20260905070014 | 28 | 132 | 0.0 | 1.6 | 0.00 | 0.00 | 0.00 | 72 | 992.3 |
| 20260905064514 | 28 | 140 | 0.0 | 1.6 | 0.00 | 0.00 | 0.00 | 72 | 992.4 |
| 20260905063011 | 28 | 110 | 0.0 | 1.6 | 0.00 | 0.00 | 0.00 | 72 | 992.3 |
| 20260905061509 | 28 | 145 | 0.0 | 1.6 | 0.00 | 0.00 | 0.00 | 71 | 992.3 |
| 20260905060013 | 28 | 171 | 0.0 | 1.6 | 0.00 | 0.00 | 0.00 | 69 | 992.3 |
| 20260905054505 | 28 | 127 | 0.0 | 1.6 | 0.00 | 0.00 | 0.00 | 69 | 992.1 |
| 20260905053003 | 29 | 96 | 0.0 | 1.6 | 0.00 | 0.00 | 0.00 | 68 | 992.0 |
| 20260905051500 | 29 | 94 | 0.0 | 1.6 | 0.00 | 0.00 | 0.00 | 68 | 991.9 |
| 20260905050107 | 29 | 100 | 0.0 | 1.6 | 0.00 | 0.00 | 0.00 | 67 | 991.9 |
| 20260905044601 | 30 | 120 | 0.0 | 1.6 | 0.00 | 0.00 | 0.00 | 67 | 991.9 |
| 20260905043058 | 30 | 100 | 0.0 | 3.2 | 0.00 | 0.00 | 0.00 | 66 | 991.9 |
| 20260905041557 | 30 | 106 | 0.0 | 9.7 | 0.00 | 0.00 | 0.00 | 65 | 992.0 |
| 20260905040058 | 30 | 111 | 0.0 | 3.2 | 0.00 | 0.00 | 0.00 | 64 | 992.1 |
| 20260905034609 | 30 | 68 | 0.0 | 3.2 | 0.00 | 0.00 | 0.00 | 63 | 992.1 |
| 20260905033106 | 31 | 74 | 0.0 | 9.7 | 0.00 | 0.00 | 0.00 | 61 | 992.0 |
| 20260905031608 | 31 | 78 | 0.0 | 3.2 | 0.00 | 0.00 | 0.00 | 60 | 992.0 |
| 20260905030055 | 31 | 69 | 0.0 | 3.2 | 0.00 | 0.00 | 0.00 | 60 | 991.9 |
| 20260905024554 | 31 | 69 | 0.0 | 3.2 | 0.00 | 0.00 | 0.00 | 59 | 991.7 |
| 20260905023125 | 31 | 61 | 0.0 | 3.2 | 0.00 | 0.00 | 0.00 | 58 | 991.5 |
| 20260905021554 | 31 | 29 | 0.0 | 3.2 | 0.00 | 0.00 | 0.00 | 57 | 991.3 |